User: anonymous   Login
Location: Unspecified
(0.0000°N, 0.0000°E)
Time: 02:43:17
(UTC+00:00)
Language:

Polar BEAR P87-1 - Orbit

View from above orbital plane
View from above orbital plane
View from above satellite
View from above satellite

Ground track
Ground track

The orbit data is extracted from the following two-line orbital elements,

1 17070U 86088A   17146.92100736 +.00000063 +00000-0 +54208-4 0  9994
2 17070 089.5340 328.0802 0039200 168.0725 316.6240 13.74730241530835
Epoch (UTC): 26 May 2017 22:06:15
Eccentricity: 0.0039200
inclination: 89.5340°
perigee height: 954 km
apogee height: 1011 km
right ascension of ascending node: 328.0802°
argument of perigee: 168.0725°
revolutions per day: 13.74730241
mean anomaly at epoch: 316.6240°
orbit number at epoch: 53083

The dashed part of the orbit path shows where the satellite is in the earth's shadow,  

DLR